Wind_Speed
15 15 15 15 15 15 15 15 15 14 15 16 16 17 17 18 19 20 22 23 25 26 27 28 30 30 30 31 32 33 35 35 36 37 37 37 37 37 36 37 37 37 37 38
16 15 16 16 16 15 15 15 14 14 16 17 17 16 17 18 20 21 22 23 25 26 27 29 30 29 31 31 31 32 34 35 35 36 36 37 36 36 37 37 38 38 38 38
15 15 16 16 16 17 16 15 15 16 17 17 18 17 17 18 19 21 21 21 23 25 26 28 29 29 30 30 30 31 32 34 35 36 36 36 36 37 37 38 39 39 38 39
15 15 16 17 17 18 17 17 17 17 18 17 18 17 16 17 18 19 21 21 22 24 25 27 28 29 30 30 31 31 31 32 34 35 36 36 36 37 38 39 39 40 39 39
15 16 16 17 18 18 18 17 17 18 18 17 17 18 15 16 18 19 20 21 22 23 24 25 27 28 29 30 31 31 31 32 33 34 35 35 37 38 38 38 37 39 40 40
16 16 17 18 18 18 18 18 18 18 18 18 17 18 16 15 17 18 20 20 21 23 23 24 26 28 28 29 30 31 31 33 34 34 35 35 36 37 37 38 38 39 40 40
18 18 18 18 18 18 18 18 19 19 18 18 18 18 18 16 17 18 19 20 21 22 23 25 25 27 28 28 29 30 31 32 33 34 35 36 36 37 37 38 39 39 39 40
20 20 19 19 19 20 19 19 19 19 19 19 18 18 17 17 17 18 19 19 20 22 23 23 25 26 27 28 28 29 30 31 32 34 35 35 37 37 38 39 39 40 39 40
22 22 21 21 21 21 21 20 20 21 21 20 19 19 18 17 18 19 20 20 21 22 23 23 24 25 26 28 29 30 31 31 32 33 34 35 36 37 37 38 39 39 39 39
24 24 23 22 22 21 22 21 22 22 23 22 21 20 20 19 19 20 21 22 23 24 24 25 26 26 27 28 29 30 31 32 33 34 35 36 37 37 38 38 38 38 39 40
26 26 25 24 23 23 23 23 23 23 24 24 23 21 21 21 21 21 22 24 25 25 26 27 27 27 28 29 30 31 32 33 33 34 35 36 37 37 38 39 39 40 40 41
27 28 27 26 26 25 25 25 24 25 25 26 26 24 22 22 23 23 23 25 26 27 28 29 29 29 30 30 31 32 33 34 34 35 35 36 37 38 39 40 41 41 42 43
29 29 29 28 27 27 27 26 26 27 27 27 27 26 25 25 25 25 25 26 27 28 29 30 31 31 32 32 33 33 33 34 34 35 36 37 38 39 40 41 42 42 42 43
31 31 30 30 29 29 28 28 27 28 28 28 28 27 26 28 27 27 28 28 28 29 30 31 31 32 33 33 34 34 34 34 35 36 37 37 38 39 40 41 42 42 42 43
33 33 32 32 32 31 31 29 29 29 29 30 29 28 28 29 29 29 29 30 30 30 31 32 32 33 33 34 35 35 35 35 36 36 37 38 39 39 40 41 41 42 42 43
35 35 34 33 33 33 32 31 31 32 31 31 31 30 29 31 30 30 30 31 31 31 32 33 33 32 33 34 34 35 36 36 36 37 37 39 39 40 41 41 42 43 43 44
37 37 36 35 35 36 34 32 33 33 32 32 33 31 32 32 31 31 32 32 32 32 32 33 33 33 34 34 35 36 36 37 37 38 38 39 40 40 41 42 42 43 43 43
38 38 38 38 37 38 35 34 34 34 34 34 34 33 33 33 33 33 33 34 34 34 34 34 34 35 36 36 36 37 37 37 38 39 39 39 40 41 41 41 42 42 43 44
40 40 40 40 41 40 37 36 36 36 35 35 35 35 35 35 34 34 33 34 35 35 35 35 36 36 37 37 37 38 38 38 39 40 40 41 41 41 41 42 42 42 42 43
41 41 41 41 42 42 39 38 38 38 38 36 37 37 36 36 36 35 35 35 35 36 36 36 37 37 38 38 39 39 39 40 40 41 41 41 41 42 42 42 42 42 42 42
40 41 41 41 43 43 40 40 39 39 39 38 38 38 38 37 37 37 36 36 36 36 36 36 37 38 38 39 40 40 40 41 42 42 42 41 41 41 41 41 42 42 41 41
40 41 41 42 43 42 40 40 40 40 40 40 39 38 38 38 37 37 37 37 37 37 37 37 37 38 38 39 40 40 41 41 42 41 41 41 41 41 41 41 41 41 41 41
42 42 43 43 43 42 41 41 41 41 42 41 40 39 39 38 38 38 38 39 38 38 38 38 38 38 39 39 39 40 40 41 40 40 40 40 40 40 41 41 40 40 40 41
43 42 43 44 43 42 42 42 42 42 42 41 41 40 40 40 39 39 39 39 39 39 39 39 39 39 39 40 40 40 40 41 41 41 40 40 40 41 40 40 41 41 41 40
43 43 43 44 43 43 43 42 42 41 41 41 41 41 41 41 41 41 40 40 40 40 40 40 39 39 39 39 39 40 41 41 41 41 41 41 40 40 40 40 40 40 40 40
41 43 43 43 42 43 43 42 42 42 42 41 41 41 42 42 42 42 42 42 42 41 41 41 40 39 39 39 39 40 41 41 41 40 40 40 40 40 40 40 39 39 40 40
Wind_Direction
324 323 320 318 313 305 303 301 299 294 286 280 280 277 276 269 263 261 258 254 248 246 245 243 241 241 242 243 244 244 246 245 245 247 248 249 251 252 254 255 256 260 260 262
323 323 323 320 315 309 306 303 301 293 287 283 283 280 275 272 264 260 259 257 253 251 247 246 244 244 244 244 245 245 247 247 248 247 248 251 251 253 254 255 257 260 262 263
323 322 321 318 314 311 309 305 301 296 289 285 283 280 276 272 266 260 259 258 256 253 250 247 245 247 246 246 248 248 248 249 248 248 250 252 253 254 255 256 259 261 263 264
320 318 316 314 312 311 309 305 302 300 297 293 290 286 279 277 267 263 261 259 257 257 254 252 251 250 248 248 250 251 250 250 250 249 251 253 254 255 256 258 261 262 264 266
315 315 314 311 310 310 309 305 303 302 300 298 295 291 286 280 270 263 263 260 258 258 256 254 253 251 250 251 251 252 252 252 253 253 254 256 258 258 259 261 264 265 266 267
310 310 309 309 307 308 309 307 304 302 303 302 300 297 292 285 275 266 263 261 260 259 256 254 253 251 251 253 253 254 255 256 256 257 258 259 260 261 262 264 266 268 268 269
306 306 305 304 303 305 306 306 305 303 303 302 301 299 295 290 283 275 270 265 263 261 258 256 255 254 254 255 255 254 257 257 257 259 260 261 263 264 265 266 267 268 270 271
304 304 304 303 302 302 303 303 304 303 302 301 299 299 296 292 285 280 275 270 267 265 262 258 255 256 256 256 258 258 259 261 261 261 262 264 265 267 268 268 268 269 271 272
300 301 301 301 301 300 299 299 301 300 299 298 297 298 296 290 284 279 276 272 270 268 265 262 260 259 260 260 261 261 262 264 265 266 266 266 269 269 270 270 271 271 273 273
295 296 298 298 298 297 296 296 297 297 297 295 295 296 297 295 287 282 277 273 270 269 267 265 264 264 263 263 264 265 265 266 267 268 269 270 271 271 271 273 273 272 274 275
292 293 295 295 295 295 293 292 292 291 291 292 292 292 294 293 290 285 281 276 273 271 269 268 266 266 266 265 265 266 267 267 268 269 270 271 272 273 273 275 275 275 276 276
290 290 291 291 291 291 291 291 289 289 289 289 290 290 290 289 288 286 282 277 274 273 271 270 269 268 266 266 266 267 267 268 269 269 271 272 273 274 275 275 276 277 277 277
288 289 289 289 289 289 291 291 289 287 287 287 288 289 288 287 284 282 280 278 275 274 271 270 270 270 269 268 268 268 268 268 269 270 271 273 274 274 275 276 276 277 278 278
285 286 287 288 289 288 289 289 288 287 286 286 287 288 285 284 282 280 279 278 277 276 274 271 271 270 270 270 269 268 269 269 270 271 272 273 274 274 274 275 277 277 278 279
283 283 284 285 286 286 287 287 286 286 285 285 287 286 285 283 282 280 280 279 279 277 275 273 271 271 270 269 269 269 269 269 270 271 272 273 275 275 276 276 277 277 278 279
281 282 282 282 284 284 284 285 285 285 286 285 284 283 282 281 281 280 279 278 277 277 275 274 272 272 272 271 270 270 270 271 271 272 273 273 275 276 277 277 277 278 278 279
280 280 280 280 281 281 283 285 285 285 286 285 284 283 280 280 280 279 278 277 277 277 276 275 274 273 273 273 272 272 272 273 273 274 275 276 276 277 278 278 278 278 278 279
278 279 279 280 280 280 285 284 284 283 284 285 284 282 280 279 279 280 280 279 278 278 277 276 275 274 274 274 274 274 274 274 275 275 276 277 278 279 279 279 279 279 279 280
277 277 278 279 280 280 281 283 283 283 283 284 284 283 281 280 280 280 280 281 280 279 278 276 275 274 274 275 275 275 275 275 276 276 277 278 279 280 280 280 280 281 281 280
276 276 277 278 279 280 282 281 282 282 282 283 283 283 283 281 281 281 281 281 281 281 279 277 276 275 275 275 275 276 275 275 276 277 278 279 280 280 281 281 281 282 281 281
275 275 277 278 278 279 281 281 281 281 282 283 283 283 284 283 283 282 282 282 282 282 280 279 278 277 276 275 275 275 276 276 276 278 279 280 281 281 281 281 281 281 281 281
275 275 275 276 277 280 280 279 279 280 280 281 282 282 282 282 282 281 281 281 281 281 281 280 280 278 277 276 275 275 276 277 277 279 280 279 280 281 281 282 281 281 280 281
274 275 275 275 276 277 277 277 276 277 278 279 280 280 280 279 279 280 280 280 280 281 281 280 280 279 278 277 276 277 278 279 279 280 280 280 280 281 281 281 280 280 281 281
274 273 273 274 275 276 275 275 275 276 278 278 278 278 278 278 279 279 279 279 281 281 281 280 280 279 278 277 277 278 279 280 281 281 281 281 281 280 280 280 279 280 280 281
274 274 273 273 274 275 275 275 275 276 276 277 277 277 277 278 279 278 279 280 280 280 280 280 279 279 278 277 278 279 280 281 282 281 281 281 281 281 280 280 280 279 279 280
273 274 274 275 275 275 274 275 275 276 276 277 277 277 277 278 279 279 279 280 280 280 279 279 279 279 279 279 280 281 281 282 281 280 280 280 281 280 281 280 280 280 279 280
Height
5730 5729 5725 5723 5721 5719 5716 5715 5714 5713 5712 5712 5711 5712 5712 5712 5713 5714 5715 5716 5718 5720 5722 5724 5726 5728 5731 5734 5736 5739 5741 5744 5746 5749 5753 5755 5757 5759 5762 5764 5766 5766 5767 5769
5729 5727 5724 5721 5719 5716 5714 5712 5711 5711 5709 5708 5708 5709 5708 5708 5709 5710 5711 5712 5714 5715 5718 5719 5721 5724 5726 5728 5730 5732 5734 5737 5739 5742 5745 5748 5749 5751 5754 5755 5757 5758 5759 5760
5727 5725 5722 5720 5717 5715 5712 5711 5709 5708 5707 5705 5705 5705 5705 5705 5705 5706 5707 5708 5709 5711 5713 5714 5716 5718 5720 5722 5724 5726 5728 5731 5733 5735 5738 5740 5742 5743 5746 5748 5749 5750 5750 5751
5725 5723 5720 5718 5715 5713 5710 5708 5707 5705 5704 5703 5702 5701 5702 5701 5701 5702 5703 5704 5705 5707 5708 5709 5711 5713 5715 5717 5719 5721 5723 5725 5726 5729 5731 5732 5734 5736 5737 5739 5740 5741 5741 5742
5722 5720 5718 5716 5713 5710 5708 5706 5704 5702 5700 5700 5699 5698 5699 5698 5697 5698 5699 5700 5701 5703 5703 5705 5706 5708 5710 5712 5714 5715 5717 5719 5720 5722 5723 5725 5726 5727 5729 5730 5731 5732 5733 5733
5719 5717 5715 5713 5710 5708 5705 5704 5702 5700 5698 5698 5697 5695 5695 5695 5694 5695 5695 5696 5697 5698 5698 5700 5701 5703 5705 5706 5708 5709 5711 5713 5714 5715 5716 5717 5718 5719 5720 5721 5722 5723 5723 5724
5717 5714 5712 5710 5708 5706 5704 5702 5700 5697 5695 5695 5694 5692 5692 5692 5691 5691 5691 5691 5692 5693 5693 5695 5696 5698 5699 5701 5702 5703 5705 5706 5707 5707 5709 5709 5710 5711 5712 5712 5713 5714 5714 5714
5713 5711 5709 5706 5704 5702 5700 5699 5698 5695 5693 5692 5691 5689 5690 5688 5687 5687 5687 5687 5687 5688 5688 5690 5691 5692 5693 5695 5696 5697 5698 5699 5699 5700 5701 5701 5702 5702 5703 5703 5704 5704 5704 5704
5708 5707 5705 5703 5700 5699 5697 5695 5694 5692 5689 5688 5687 5686 5686 5685 5684 5683 5683 5683 5683 5683 5683 5684 5685 5687 5688 5688 5689 5690 5691 5691 5692 5692 5693 5693 5693 5694 5693 5693 5693 5694 5694 5694
5703 5702 5701 5699 5697 5695 5693 5691 5690 5687 5685 5683 5683 5682 5681 5680 5679 5679 5678 5678 5678 5678 5678 5679 5679 5680 5681 5682 5682 5683 5683 5684 5684 5684 5684 5685 5685 5685 5684 5684 5684 5684 5683 5683
5697 5696 5696 5694 5692 5690 5688 5687 5684 5682 5681 5679 5677 5680 5676 5675 5674 5673 5673 5672 5672 5673 5673 5673 5673 5674 5674 5675 5675 5676 5676 5676 5676 5676 5676 5676 5676 5675 5675 5675 5674 5674 5673 5673
5691 5690 5689 5688 5686 5684 5682 5681 5679 5678 5675 5673 5672 5675 5671 5669 5667 5667 5667 5666 5666 5666 5666 5666 5666 5666 5667 5667 5667 5668 5667 5667 5667 5667 5667 5666 5666 5666 5665 5665 5664 5663 5663 5662
5685 5683 5682 5681 5682 5679 5676 5674 5672 5671 5669 5667 5666 5669 5665 5663 5661 5660 5660 5660 5659 5659 5659 5659 5659 5658 5658 5659 5659 5659 5658 5658 5658 5658 5657 5657 5656 5655 5655 5654 5654 5653 5652 5651
5677 5676 5676 5675 5673 5670 5669 5668 5666 5664 5662 5661 5660 5660 5659 5656 5655 5654 5653 5652 5652 5651 5651 5651 5650 5650 5650 5650 5649 5649 5649 5649 5648 5648 5647 5647 5646 5645 5644 5643 5643 5642 5641 5640
5669 5668 5667 5666 5665 5663 5662 5660 5659 5657 5655 5654 5654 5652 5652 5649 5647 5646 5645 5644 5643 5643 5642 5642 5641 5641 5641 5640 5640 5640 5639 5639 5638 5638 5637 5636 5635 5634 5633 5632 5631 5630 5629 5628
5659 5659 5659 5658 5656 5654 5653 5653 5651 5649 5648 5646 5645 5645 5644 5641 5640 5639 5637 5636 5635 5634 5633 5633 5632 5632 5631 5631 5630 5630 5629 5628 5628 5627 5626 5625 5624 5623 5622 5621 5620 5619 5617 5616
5650 5649 5649 5649 5647 5645 5645 5646 5643 5641 5640 5638 5636 5637 5635 5633 5631 5630 5629 5627 5626 5625 5624 5623 5623 5622 5621 5621 5620 5619 5618 5618 5617 5616 5615 5614 5613 5612 5610 5609 5608 5607 5605 5603
5641 5639 5637 5637 5637 5635 5640 5636 5634 5632 5632 5629 5627 5627 5625 5624 5622 5621 5620 5618 5617 5615 5614 5613 5612 5612 5611 5610 5609 5608 5608 5607 5606 5605 5604 5603 5602 5600 5599 5597 5596 5594 5593 5591
5630 5628 5627 5626 5624 5625 5628 5627 5624 5622 5622 5620 5618 5617 5615 5614 5613 5612 5610 5608 5607 5605 5604 5603 5602 5601 5600 5599 5598 5597 5597 5596 5595 5594 5592 5591 5590 5589 5587 5585 5584 5582 5580 5579
5619 5618 5617 5615 5613 5613 5618 5616 5613 5612 5611 5610 5607 5606 5605 5603 5602 5603 5600 5598 5596 5595 5593 5592 5591 5590 5589 5588 5587 5586 5585 5584 5583 5582 5581 5580 5578 5577 5575 5573 5572 5570 5568 5567
5608 5606 5605 5603 5601 5602 5605 5603 5602 5602 5601 5598 5596 5595 5594 5592 5591 5590 5589 5587 5585 5584 5582 5581 5580 5579 5577 5576 5575 5574 5573 5572 5571 5570 5569 5568 5566 5564 5563 5561 5560 5558 5556 5555
5595 5594 5594 5592 5591 5594 5592 5591 5590 5589 5588 5586 5585 5584 5583 5581 5580 5579 5578 5576 5575 5573 5571 5570 5569 5568 5566 5564 5563 5562 5561 5560 5559 5558 5557 5556 5554 5553 5551 5549 5548 5546 5544 5543
5583 5583 5581 5581 5582 5581 5579 5578 5577 5576 5576 5575 5573 5573 5571 5570 5569 5568 5566 5565 5564 5562 5560 5558 5557 5556 5555 5553 5552 5551 5549 5548 5547 5546 5545 5543 5542 5541 5539 5537 5536 5534 5533 5531
5571 5570 5569 5568 5569 5568 5567 5565 5565 5564 5563 5562 5561 5561 5559 5558 5557 5556 5555 5554 5552 5550 5549 5547 5546 5544 5543 5541 5540 5539 5537 5536 5535 5534 5532 5531 5529 5528 5527 5525 5524 5522 5521 5519
5558 5557 5556 5555 5556 5555 5555 5553 5553 5552 5551 5550 5550 5548 5547 5546 5546 5544 5543 5542 5540 5538 5537 5535 5534 5533 5531 5529 5528 5527 5525 5523 5522 5521 5520 5519 5517 5516 5514 5513 5512 5510 5509 5507
5546 5544 5543 5543 5544 5542 5542 5541 5540 5540 5539 5539 5538 5537 5535 5534 5533 5532 5531 5529 5527 5526 5524 5523 5522 5521 5520 5518 5517 5515 5513 5511 5510 5509 5507 5506 5505 5503 5502 5501 5500 5498 5496 5495